,,,PA_Meas_PMT16A,,PR_Meas_QMR101_102,,RH_Meas_QMH101,,SR_Meas_QMS101,,TA_Meas_QMH101,,GenWind,,GenWind,
date,time,status,PA,status,PR,status,RH,status,SR,status,TA,status,DirAvg,status,SpdAvg,
2009-02-13, 00:00:04,VALID,1002.83,VALID,0,VALID,84.3068,VALID,0,VALID,26.5835,VALID,13,VALID,0.728516,
2009-02-13, 00:01:04,VALID,1002.84,VALID,0,VALID,84.4822,VALID,0,VALID,26.5855,VALID,25,VALID,0.460938,
2009-02-13, 00:02:04,VALID,1002.86,VALID,0,VALID,84.3678,VALID,0,VALID,26.605,VALID,29,VALID,1.09727,
2009-02-13, 00:03:04,VALID,1002.86,VALID,0,VALID,84.3296,VALID,0,VALID,26.6245,VALID,74,VALID,0.538281,
2009-02-13, 00:04:04,VALID,1002.89,VALID,0,VALID,84.4212,VALID,0,VALID,26.605,VALID,27,VALID,0.173438,
2009-02-13, 00:05:04,VALID,1002.88,VALID,0,VALID,84.3907,VALID,0,VALID,26.605,VALID,90,VALID,0.847266,
2009-02-13, 00:06:04,VALID,1002.9,VALID,0,VALID,84.4212,VALID,0,VALID,26.6245,VALID,41,VALID,0.217187,
2009-02-13, 00:07:04,VALID,1002.87,VALID,0,VALID,84.467,VALID,0,VALID,26.5855,VALID,41,VALID,0.0550781,
2009-02-13, 00:08:04,VALID,1002.9,VALID,0,VALID,84.6729,VALID,0,VALID,26.5661,VALID,41,VALID,0,
2009-02-13, 00:09:04,VALID,1002.9,VALID,0,VALID,84.7721,VALID,0,VALID,26.5486,VALID,41,VALID,0.321484,
2009-02-13, 00:10:04,VALID,1002.87,VALID,0,VALID,84.7416,VALID,0,VALID,26.5076,VALID,111,VALID,0.790234,
2009-02-13, 00:11:04,VALID,1002.85,VALID,0,VALID,84.8026,VALID,0,VALID,26.5076,VALID,74,VALID,0.157813,
2009-02-13, 00:12:04,VALID,1002.86,VALID,0,VALID,84.6653,VALID,0,VALID,26.5486,VALID,79,VALID,0.989453,
2009-02-13, 00:13:04,VALID,1002.87,VALID,0,VALID,84.5585,VALID,0,VALID,26.5466,VALID,62,VALID,0.501562,
2009-02-13, 00:14:04,VALID,1002.89,VALID,0,VALID,84.5585,VALID,0,VALID,26.5466,VALID,41,VALID,0.486719,
2009-02-13, 00:15:04,VALID,1002.89,VALID,0,VALID,84.5204,VALID,0,VALID,26.5486,VALID,33,VALID,0.430859,
2009-02-13, 00:16:04,VALID,1002.86,VALID,0,VALID,84.4593,VALID,0,VALID,26.5271,VALID,43,VALID,0.155078,
2009-02-13, 00:17:04,VALID,1002.82,VALID,0,VALID,84.589,VALID,0,VALID,26.5271,VALID,46,VALID,0.278906,
2009-02-13, 00:18:04,VALID,1002.77,VALID,0,VALID,84.5509,VALID,0,VALID,26.4881,VALID,86,VALID,0.102344,
2009-02-13, 00:19:04,VALID,1002.75,VALID,0,VALID,84.5814,VALID,0,VALID,26.5096,VALID,86,VALID,0.33125,
2009-02-13, 00:20:04,VALID,1002.74,VALID,0,VALID,84.6195,VALID,0,VALID,26.4881,VALID,86,VALID,0.0542969,
2009-02-13, 00:21:04,VALID,1002.75,VALID,0,VALID,84.795,VALID,0,VALID,26.4687,VALID,86,VALID,0.216016,
2009-02-13, 00:22:04,VALID,1002.72,VALID,0,VALID,84.8866,VALID,0,VALID,26.4297,VALID,86,VALID,0.172266,
2009-02-13, 00:23:04,VALID,1002.79,VALID,0,VALID,84.9018,VALID,0,VALID,26.4102,VALID,92,VALID,0.328516,
2009-02-13, 00:24:04,VALID,1002.8,VALID,0,VALID,84.9018,VALID,0,VALID,26.4102,VALID,92,VALID,0.100781,
2009-02-13, 00:25:04,VALID,1002.83,VALID,0,VALID,85.0849,VALID,0,VALID,26.4297,VALID,92,VALID,0.396094,
2009-02-13, 00:26:04,VALID,1002.87,VALID,0,VALID,85.123,VALID,0,VALID,26.4317,VALID,92,VALID,0.396484,
2009-02-13, 00:27:04,VALID,1002.85,VALID,0,VALID,85.2222,VALID,0,VALID,26.4102,VALID,317,VALID,0.405859,
2009-02-13, 00:28:04,VALID,1002.83,VALID,0,VALID,85.1993,VALID,0,VALID,26.3907,VALID,317,VALID,0.124219,
2009-02-13, 00:29:04,VALID,1002.8,VALID,0,VALID,85.2604,VALID,0,VALID,26.3713,VALID,317,VALID,0.0804688,
2009-02-13, 00:30:04,VALID,1002.77,VALID,0,VALID,85.3061,VALID,0,VALID,26.3713,VALID,302,VALID,0.326953,
2009-02-13, 00:31:04,VALID,1002.75,VALID,0,VALID,85.3672,VALID,0,VALID,26.3713,VALID,207,VALID,0.269531,
2009-02-13, 00:32:04,VALID,1002.71,VALID,0,VALID,85.2833,VALID,0,VALID,26.3907,VALID,204,VALID,0,
2009-02-13, 00:33:04,VALID,1002.71,VALID,0,VALID,85.3138,VALID,0,VALID,26.4102,VALID,88,VALID,0.337891,
2009-02-13, 00:34:04,VALID,1002.7,VALID,0,VALID,85.3977,VALID,0,VALID,26.4102,VALID,88,VALID,0.0429688,
2009-02-13, 00:35:04,VALID,1002.71,VALID,0,VALID,85.2604,VALID,0,VALID,26.3713,VALID,89,VALID,0,
2009-02-13, 00:36:04,VALID,1002.71,VALID,0,VALID,85.3443,VALID,0,VALID,26.3907,VALID,89,VALID,0.267188,
2009-02-13, 00:37:04,VALID,1002.72,VALID,0,VALID,85.3061,VALID,0,VALID,26.3518,VALID,89,VALID,0,
2009-02-13, 00:38:04,VALID,1002.71,VALID,0,VALID,85.5884,VALID,0,VALID,26.3128,VALID,89,VALID,0.0234375,
2009-02-13, 00:39:04,VALID,1002.7,VALID,0,VALID,85.9088,VALID,0,VALID,26.2933,VALID,272,VALID,0.425,
2009-02-13, 00:40:04,VALID,1002.69,VALID,0,VALID,86.0233,VALID,0,VALID,26.2524,VALID,277,VALID,0.611328,
2009-02-13, 00:41:04,VALID,1002.67,VALID,0,VALID,86.1301,VALID,0,VALID,26.194,VALID,311,VALID,0.356641,
2009-02-13, 00:42:04,VALID,1002.68,VALID,0,VALID,86.3742,VALID,0.100563,VALID,26.1355,VALID,311,VALID,0.00195313,
2009-02-13, 00:43:04,VALID,1002.67,VALID,0,VALID,86.4962,VALID,0,VALID,26.0985,VALID,321,VALID,0.333984,
2009-02-13, 00:44:04,VALID,1002.66,VALID,0,VALID,86.7327,VALID,0,VALID,26.0596,VALID,321,VALID,0.183984,
2009-02-13, 00:45:04,VALID,1002.65,VALID,0,VALID,86.8777,VALID,0,VALID,25.9817,VALID,322,VALID,0.153125,
2009-02-13, 00:46:04,VALID,1002.64,VALID,0,VALID,87.16,VALID,0,VALID,25.9232,VALID,322,VALID,0.190234,
2009-02-13, 00:47:04,VALID,1002.63,VALID,0,VALID,87.3888,VALID,0.100563,VALID,25.8434,VALID,322,VALID,0,
2009-02-13, 00:48:04,VALID,1002.58,VALID,0,VALID,87.6101,VALID,0,VALID,25.8064,VALID,322,VALID,0,
2009-02-13, 00:49:04,VALID,1002.57,VALID,0,VALID,87.7703,VALID,0,VALID,25.7869,VALID,322,VALID,0,
2009-02-13, 00:50:04,VALID,1002.58,VALID,0,VALID,87.9915,VALID,0,VALID,25.748,VALID,322,VALID,0.433594,
2009-02-13, 00:51:04,VALID,1002.58,VALID,0,VALID,88.1288,VALID,0,VALID,25.7265,VALID,328,VALID,0.230859,
2009-02-13, 00:52:04,VALID,1002.57,VALID,0,VALID,88.167,VALID,0,VALID,25.748,VALID,328,VALID,0.302734,
2009-02-13, 00:53:04,VALID,1002.56,VALID,0,VALID,88.2585,VALID,0,VALID,25.748,VALID,328,VALID,0.260156,
2009-02-13, 00:54:04,VALID,1002.58,VALID,0,VALID,88.2433,VALID,0,VALID,25.7869,VALID,328,VALID,0.239063,
2009-02-13, 00:55:04,VALID,1002.56,VALID,0,VALID,88.1136,VALID,0,VALID,25.8064,VALID,328,VALID,0.314844,
2009-02-13, 00:56:04,VALID,1002.56,VALID,0,VALID,88.1288,VALID,0,VALID,25.7869,VALID,328,VALID,0.0488281,
2009-02-13, 00:57:04,VALID,1002.51,VALID,0,VALID,88.2585,VALID,0,VALID,25.7655,VALID,298,VALID,0.751562,
2009-02-13, 00:58:04,VALID,1002.46,VALID,0,VALID,88.2585,VALID,0.100563,VALID,25.8064,VALID,351,VALID,0.741797,
2009-02-13, 00:59:04,VALID,1002.39,VALID,0,VALID,88.0678,VALID,0.100563,VALID,25.7655,VALID,359,VALID,0.674219,
2009-02-13, 01:00:04,VALID,1002.36,VALID,0,VALID,88.0907,VALID,0,VALID,25.7285,VALID,350,VALID,0.972656,
2009-02-13, 01:01:04,VALID,1002.35,VALID,0,VALID,88.1593,VALID,0,VALID,25.709,VALID,320,VALID,0.505078,
2009-02-13, 01:02:04,VALID,1002.32,VALID,0,VALID,88.228,VALID,0,VALID,25.709,VALID,343,VALID,0.74375,
2009-02-13, 01:03:04,VALID,1002.32,VALID,0,VALID,88.3501,VALID,0,VALID,25.67,VALID,343,VALID,0.172656,
2009-02-13, 01:04:04,VALID,1002.31,VALID,0,VALID,88.4798,VALID,0,VALID,25.6506,VALID,343,VALID,0.326953,
2009-02-13, 01:05:04,VALID,1002.3,VALID,0,VALID,88.5942,VALID,0,VALID,25.633,VALID,343,VALID,0.262891,
2009-02-13, 01:06:04,VALID,1002.27,VALID,0,VALID,88.6628,VALID,0,VALID,25.5727,VALID,343,VALID,0.299609,
2009-02-13, 01:07:04,VALID,1002.24,VALID,0,VALID,88.8765,VALID,0,VALID,25.5318,VALID,343,VALID,0.198437,
2009-02-13, 01:08:04,VALID,1002.17,VALID,0,VALID,89.029,VALID,0,VALID,25.4948,VALID,343,VALID,0.283984,
2009-02-13, 01:09:04,VALID,1002.18,VALID,0,VALID,89.235,VALID,0,VALID,25.4344,VALID,2,VALID,0.742578,
2009-02-13, 01:10:04,VALID,1002.19,VALID,0,VALID,89.3571,VALID,0,VALID,25.4558,VALID,357,VALID,0.358594,
2009-02-13, 01:11:04,VALID,1002.17,VALID,0,VALID,89.4563,VALID,0.100563,VALID,25.3955,VALID,4,VALID,0.288672,
2009-02-13, 01:12:04,VALID,1002.18,VALID,0,VALID,89.6317,VALID,0,VALID,25.3779,VALID,4,VALID,0.377734,
2009-02-13, 01:13:04,VALID,1002.15,VALID,0,VALID,89.7996,VALID,0,VALID,25.3565,VALID,4,VALID,0.360156,
2009-02-13, 01:14:04,VALID,1002.15,VALID,0,VALID,89.8987,VALID,0,VALID,25.3993,VALID,352,VALID,0.455078,
2009-02-13, 01:15:04,VALID,1002.11,VALID,0,VALID,89.9826,VALID,0,VALID,25.3779,VALID,352,VALID,0.246484,
2009-02-13, 01:16:04,VALID,1002.09,VALID,0,VALID,89.9216,VALID,0,VALID,25.337,VALID,352,VALID,0.0410156,
2009-02-13, 01:17:04,VALID,1002.06,VALID,0,VALID,90.036,VALID,0.100563,VALID,25.3195,VALID,356,VALID,0.495313,
2009-02-13, 01:18:04,VALID,1002.05,VALID,0,VALID,90.242,VALID,0,VALID,25.2981,VALID,6,VALID,0.430859,
2009-02-13, 01:19:04,VALID,1002.04,VALID,0,VALID,90.2725,VALID,0.100563,VALID,25.3195,VALID,6,VALID,0.385938,
2009-02-13, 01:20:04,VALID,1002.05,VALID,0,VALID,90.3412,VALID,0,VALID,25.2786,VALID,6,VALID,0.416797,
2009-02-13, 01:21:04,VALID,1002.05,VALID,0,VALID,90.4022,VALID,0,VALID,25.3195,VALID,2,VALID,0.440234,
2009-02-13, 01:22:04,VALID,1002.01,VALID,0,VALID,90.4251,VALID,0,VALID,25.3195,VALID,1,VALID,0.382031,
2009-02-13, 01:23:04,VALID,1002.03,VALID,0,VALID,90.4404,VALID,0,VALID,25.3176,VALID,347,VALID,0.319922,
2009-02-13, 01:24:04,VALID,1002.05,VALID,0,VALID,90.448,VALID,0,VALID,25.4169,VALID,347,VALID,0.296094,
2009-02-13, 01:25:04,VALID,1002.09,VALID,0,VALID,90.2268,VALID,0,VALID,25.4753,VALID,347,VALID,0.328516,
2009-02-13, 01:26:04,VALID,1002.1,VALID,0,VALID,89.9521,VALID,0,VALID,25.5142,VALID,347,VALID,0,
2009-02-13, 01:27:04,VALID,1002.15,VALID,0,VALID,89.8072,VALID,0,VALID,25.5123,VALID,7,VALID,0.341797,
2009-02-13, 01:28:04,VALID,1002.19,VALID,0,VALID,89.5631,VALID,0.100563,VALID,25.5142,VALID,81,VALID,0.463672,
2009-02-13, 01:29:04,VALID,1002.22,VALID,0,VALID,89.4791,VALID,0,VALID,25.4539,VALID,65,VALID,0.391406,
2009-02-13, 01:30:04,VALID,1002.22,VALID,0,VALID,89.5631,VALID,0.100563,VALID,25.3955,VALID,65,VALID,0.223047,
2009-02-13, 01:31:04,VALID,1002.24,VALID,0,VALID,89.8682,VALID,0,VALID,25.3565,VALID,74,VALID,0.353516,
2009-02-13, 01:32:04,VALID,1002.28,VALID,0,VALID,90.0666,VALID,0.100563,VALID,25.337,VALID,74,VALID,0.00117188,
2009-02-13, 01:33:04,VALID,1002.25,VALID,0,VALID,90.2191,VALID,0,VALID,25.337,VALID,74,VALID,0.234375,
2009-02-13, 01:34:04,VALID,1002.26,VALID,0,VALID,90.2878,VALID,0,VALID,25.3584,VALID,80,VALID,0.721484,
2009-02-13, 01:35:04,VALID,1002.22,VALID,0,VALID,90.5396,VALID,0.100563,VALID,25.376,VALID,92,VALID,0.770703,
2009-02-13, 01:36:04,VALID,1002.19,VALID,0,VALID,90.4404,VALID,0,VALID,25.4149,VALID,119,VALID,0.301953,
2009-02-13, 01:37:04,VALID,1002.16,VALID,0,VALID,90.3946,VALID,0.100563,VALID,25.4344,VALID,68,VALID,0.326953,
2009-02-13, 01:38:04,VALID,1002.14,VALID,0,VALID,90.387,VALID,0.100563,VALID,25.4928,VALID,86,VALID,0.517578,
2009-02-13, 01:39:04,VALID,1002.1,VALID,0,VALID,90.1886,VALID,0.100563,VALID,25.5707,VALID,61,VALID,1.01406,
2009-02-13, 01:40:04,VALID,1002.1,VALID,0,VALID,89.8148,VALID,0,VALID,25.6895,VALID,92,VALID,0.582031,
2009-02-13, 01:41:04,VALID,1002.05,VALID,0,VALID,89.4715,VALID,0.100563,VALID,25.748,VALID,97,VALID,0.346094,
2009-02-13, 01:42:04,VALID,1002.04,VALID,0,VALID,89.1435,VALID,0,VALID,25.7655,VALID,329,VALID,0.428906,
2009-02-13, 01:43:04,VALID,1002.05,VALID,0,VALID,88.907,VALID,0,VALID,25.8239,VALID,94,VALID,0.321484,
2009-02-13, 01:44:04,VALID,1002,VALID,0,VALID,88.6934,VALID,0,VALID,25.8648,VALID,94,VALID,0.278125,
2009-02-13, 01:45:04,VALID,1002.01,VALID,0,VALID,88.5026,VALID,0,VALID,25.8843,VALID,75,VALID,0.628906,
2009-02-13, 01:46:04,VALID,1002.04,VALID,0,VALID,88.3119,VALID,0,VALID,25.9213,VALID,22,VALID,0.541406,
2009-02-13, 01:47:04,VALID,1002.02,VALID,0,VALID,88.022,VALID,0.100563,VALID,25.9622,VALID,53,VALID,0.747266,
2009-02-13, 01:48:04,VALID,1002.08,VALID,0,VALID,87.8237,VALID,0,VALID,26.0012,VALID,32,VALID,0.187891,
2009-02-13, 01:49:04,VALID,1002.1,VALID,0,VALID,87.7321,VALID,0,VALID,25.9797,VALID,32,VALID,0.0464844,
2009-02-13, 01:50:04,VALID,1002.15,VALID,0,VALID,87.7169,VALID,0,VALID,25.9797,VALID,32,VALID,0.0761719,
2009-02-13, 01:51:04,VALID,1002.19,VALID,0,VALID,87.8313,VALID,0,VALID,25.9797,VALID,32,VALID,0,
2009-02-13, 01:52:04,VALID,1002.24,VALID,0,VALID,87.7398,VALID,0,VALID,26.0012,VALID,26,VALID,0.448438,
2009-02-13, 01:53:04,VALID,1002.28,VALID,0,VALID,87.6863,VALID,0,VALID,25.9602,VALID,26,VALID,0.281641,
2009-02-13, 01:54:04,VALID,1002.35,VALID,0,VALID,87.5795,VALID,0,VALID,26.0012,VALID,26,VALID,0.250781,
2009-02-13, 01:55:04,VALID,1002.37,VALID,0,VALID,87.5338,VALID,0.100563,VALID,25.9797,VALID,14,VALID,0.548828,
2009-02-13, 01:56:04,VALID,1002.37,VALID,0,VALID,87.6558,VALID,0.100563,VALID,25.9427,VALID,360,VALID,0.434766,
2009-02-13, 01:57:04,VALID,1002.38,VALID,0,VALID,87.9686,VALID,0.100563,VALID,25.8823,VALID,360,VALID,0.792188,
2009-02-13, 01:58:04,VALID,1002.36,VALID,0,VALID,88.2433,VALID,0,VALID,25.8434,VALID,2,VALID,0.3625,
2009-02-13, 01:59:04,VALID,1002.38,VALID,0,VALID,88.3806,VALID,0.100563,VALID,25.8453,VALID,35,VALID,0.389453,
2009-02-13, 02:00:04,VALID,1002.33,VALID,0,VALID,88.3577,VALID,0,VALID,25.8648,VALID,21,VALID,0.725,
2009-02-13, 02:01:04,VALID,1002.32,VALID,0,VALID,88.3501,VALID,0.100563,VALID,25.8453,VALID,11,VALID,0.801172,
2009-02-13, 02:02:04,VALID,1002.27,VALID,0,VALID,88.2509,VALID,0,VALID,25.8629,VALID,44,VALID,0.669922,
2009-02-13, 02:03:04,VALID,1002.26,VALID,0,VALID,88.0754,VALID,0.100563,VALID,25.9038,VALID,43,VALID,0.463672,
2009-02-13, 02:04:04,VALID,1002.22,VALID,0,VALID,88.1212,VALID,0,VALID,25.8843,VALID,14,VALID,0.603125,
2009-02-13, 02:05:04,VALID,1002.2,VALID,0,VALID,88.228,VALID,0,VALID,25.8434,VALID,10,VALID,0.312109,
2009-02-13, 02:06:04,VALID,1002.15,VALID,0,VALID,88.2814,VALID,0,VALID,25.8259,VALID,4,VALID,0.583203,
2009-02-13, 02:07:04,VALID,1002.15,VALID,0,VALID,88.3195,VALID,0,VALID,25.8259,VALID,4,VALID,0.722656,
2009-02-13, 02:08:04,VALID,1002.1,VALID,0,VALID,88.2356,VALID,0,VALID,25.785,VALID,346,VALID,0.621094,
2009-02-13, 02:09:04,VALID,1002.08,VALID,0,VALID,88.3653,VALID,0.100563,VALID,25.785,VALID,349,VALID,0.400391,
2009-02-13, 02:10:04,VALID,1002.08,VALID,0,VALID,88.434,VALID,0,VALID,25.748,VALID,349,VALID,0.555859,
2009-02-13, 02:11:04,VALID,1002.08,VALID,0,VALID,88.6628,VALID,0,VALID,25.709,VALID,350,VALID,0.555469,
2009-02-13, 02:12:04,VALID,1002.08,VALID,0,VALID,88.9451,VALID,0,VALID,25.6311,VALID,355,VALID,0.577344,
2009-02-13, 02:13:04,VALID,1002.11,VALID,0,VALID,89.1969,VALID,0,VALID,25.5921,VALID,351,VALID,0.840234,
2009-02-13, 02:14:04,VALID,1002.05,VALID,0,VALID,89.3723,VALID,0,VALID,25.5532,VALID,351,VALID,0.919531,
2009-02-13, 02:15:04,VALID,1002.06,VALID,0,VALID,89.5402,VALID,0,VALID,25.5337,VALID,43,VALID,1.19375,
2009-02-13, 02:16:04,VALID,1002.09,VALID,0,VALID,89.6088,VALID,0,VALID,25.5142,VALID,20,VALID,0.763281,
2009-02-13, 02:17:04,VALID,1002.08,VALID,0,VALID,89.6775,VALID,0,VALID,25.4928,VALID,347,VALID,1.04688,
2009-02-13, 02:18:04,VALID,1002.1,VALID,0,VALID,89.7767,VALID,0.100563,VALID,25.4734,VALID,349,VALID,0.951172,
2009-02-13, 02:19:04,VALID,1002.09,VALID,0,VALID,89.8377,VALID,0.100563,VALID,25.4948,VALID,6,VALID,0.566016,
2009-02-13, 02:20:04,VALID,1002.08,VALID,0,VALID,89.9979,VALID,0.100563,VALID,25.4948,VALID,5,VALID,0.829297,
2009-02-13, 02:21:04,VALID,1002.07,VALID,0,VALID,90.0513,VALID,0,VALID,25.5142,VALID,9,VALID,0.548047,
2009-02-13, 02:22:04,VALID,1002.08,VALID,0,VALID,90.0055,VALID,0,VALID,25.5318,VALID,46,VALID,1.06016,
2009-02-13, 02:23:04,VALID,1002.1,VALID,0,VALID,89.8148,VALID,0.100563,VALID,25.5707,VALID,355,VALID,0.848828,
2009-02-13, 02:24:04,VALID,1002.11,VALID,0,VALID,89.6241,VALID,0,VALID,25.6311,VALID,357,VALID,0.888672,
2009-02-13, 02:25:04,VALID,1002.12,VALID,0,VALID,89.502,VALID,0,VALID,25.6311,VALID,359,VALID,0.497266,
2009-02-13, 02:26:04,VALID,1002.12,VALID,0,VALID,89.3647,VALID,0,VALID,25.6506,VALID,357,VALID,0.680469,
2009-02-13, 02:27:04,VALID,1002.13,VALID,0,VALID,89.1664,VALID,0,VALID,25.6895,VALID,357,VALID,0.451172,
2009-02-13, 02:28:04,VALID,1002.15,VALID,0,VALID,88.9909,VALID,0,VALID,25.748,VALID,30,VALID,0.441797,
2009-02-13, 02:29:04,VALID,1002.11,VALID,0,VALID,88.8002,VALID,0,VALID,25.7674,VALID,30,VALID,0.328906,
2009-02-13, 02:30:04,VALID,1002.13,VALID,0,VALID,88.7849,VALID,0.100563,VALID,25.7869,VALID,30,VALID,0.165625,
2009-02-13, 02:31:04,VALID,1002.11,VALID,0,VALID,88.556,VALID,0,VALID,25.7674,VALID,352,VALID,0.850391,
2009-02-13, 02:32:04,VALID,1002.06,VALID,0,VALID,88.5255,VALID,0,VALID,25.8083,VALID,354,VALID,0.419141,
2009-02-13, 02:33:04,VALID,1002.03,VALID,0,VALID,88.0983,VALID,0,VALID,25.7674,VALID,352,VALID,1.14492,
2009-02-13, 02:34:04,VALID,1002.01,VALID,0,VALID,88.0907,VALID,0,VALID,25.7869,VALID,11,VALID,0.701563,
2009-02-13, 02:35:04,VALID,1001.99,VALID,0,VALID,88.1288,VALID,0,VALID,25.7674,VALID,3,VALID,0.574609,
2009-02-13, 02:36:04,VALID,1002.01,VALID,0,VALID,88.228,VALID,0,VALID,25.7285,VALID,18,VALID,0.566406,
2009-02-13, 02:37:04,VALID,1002.01,VALID,0,VALID,88.3653,VALID,0,VALID,25.709,VALID,340,VALID,0.428125,
2009-02-13, 02:38:04,VALID,1001.99,VALID,0,VALID,88.4187,VALID,0,VALID,25.6895,VALID,341,VALID,0.596094,
2009-02-13, 02:39:04,VALID,1002,VALID,0,VALID,88.5255,VALID,0,VALID,25.6506,VALID,347,VALID,0.594922,
2009-02-13, 02:40:04,VALID,1001.99,VALID,0,VALID,88.6094,VALID,0,VALID,25.6116,VALID,340,VALID,0.319922,
2009-02-13, 02:41:04,VALID,1002.06,VALID,0,VALID,88.5484,VALID,0,VALID,25.6136,VALID,14,VALID,1.02031,
2009-02-13, 02:42:04,VALID,1002.08,VALID,0,VALID,88.3195,VALID,0,VALID,25.5921,VALID,13,VALID,0.563281,
2009-02-13, 02:43:04,VALID,1002.1,VALID,0,VALID,88.228,VALID,0,VALID,25.5921,VALID,346,VALID,0.646875,
2009-02-13, 02:44:04,VALID,1002.13,VALID,0,VALID,87.8694,VALID,0,VALID,25.5921,VALID,353,VALID,0.717578,
2009-02-13, 02:45:04,VALID,1002.11,VALID,0,VALID,87.343,VALID,0,VALID,25.6116,VALID,340,VALID,0.992188,
2009-02-13, 02:46:04,VALID,1002.13,VALID,0,VALID,87.2134,VALID,0,VALID,25.6506,VALID,350,VALID,0.665625,
2009-02-13, 02:47:04,VALID,1002.13,VALID,0,VALID,87.0913,VALID,0,VALID,25.6506,VALID,61,VALID,0.611719,
2009-02-13, 02:48:04,VALID,1002.11,VALID,0,VALID,86.9158,VALID,0,VALID,25.6506,VALID,11,VALID,0.340234,
2009-02-13, 02:49:04,VALID,1002.12,VALID,0,VALID,86.8624,VALID,0,VALID,25.67,VALID,360,VALID,0.46875,
2009-02-13, 02:50:04,VALID,1002.12,VALID,0,VALID,86.7861,VALID,0,VALID,25.67,VALID,359,VALID,0.237109,
2009-02-13, 02:51:04,VALID,1002.16,VALID,0,VALID,86.8014,VALID,0,VALID,25.6895,VALID,239,VALID,0.623047,
2009-02-13, 02:52:04,VALID,1002.19,VALID,0,VALID,86.8777,VALID,0,VALID,25.6895,VALID,238,VALID,0.14375,
2009-02-13, 02:53:04,VALID,1002.18,VALID,0,VALID,86.9921,VALID,0,VALID,25.67,VALID,230,VALID,0.845703,
2009-02-13, 02:54:04,VALID,1002.22,VALID,0,VALID,87.1905,VALID,0,VALID,25.6506,VALID,230,VALID,0.656641,
2009-02-13, 02:55:04,VALID,1002.2,VALID,0,VALID,87.5033,VALID,0,VALID,25.6116,VALID,230,VALID,0.453125,
2009-02-13, 02:56:04,VALID,1002.22,VALID,0,VALID,87.9991,VALID,0,VALID,25.5921,VALID,230,VALID,0.609766,
2009-02-13, 02:57:04,VALID,1002.2,VALID,0,VALID,88.4798,VALID,0,VALID,25.5727,VALID,219,VALID,0.640625,
2009-02-13, 02:58:04,VALID,1002.19,VALID,0,VALID,88.7239,VALID,0,VALID,25.5337,VALID,219,VALID,0.347656,
2009-02-13, 02:59:04,VALID,1002.2,VALID,0,VALID,88.8765,VALID,0,VALID,25.5162,VALID,219,VALID,0.141406,
2009-02-13, 03:00:04,VALID,1002.18,VALID,0,VALID,89.029,VALID,0,VALID,25.4753,VALID,220,VALID,0.219922,
2009-02-13, 03:01:04,VALID,1002.14,VALID,0,VALID,89.0748,VALID,0,VALID,25.4344,VALID,220,VALID,0.207422,
2009-02-13, 03:02:04,VALID,1002.13,VALID,0,VALID,89.1511,VALID,0,VALID,25.4363,VALID,220,VALID,0.00664063,
2009-02-13, 03:03:04,VALID,1002.13,VALID,0,VALID,89.1358,VALID,0,VALID,25.4169,VALID,220,VALID,0.217969,
2009-02-13, 03:04:04,VALID,1002.11,VALID,0,VALID,89.0443,VALID,0,VALID,25.4383,VALID,220,VALID,0.269922,
2009-02-13, 03:05:04,VALID,1002.14,VALID,0,VALID,89.4944,VALID,0,VALID,25.4169,VALID,222,VALID,0.432422,
2009-02-13, 03:06:04,VALID,1002.21,VALID,0,VALID,89.5249,VALID,0,VALID,25.376,VALID,342,VALID,0.730859,
2009-02-13, 03:07:04,VALID,1002.27,VALID,0,VALID,89.7004,VALID,0,VALID,25.3584,VALID,354,VALID,0.867969,
2009-02-13, 03:08:04,VALID,1002.28,VALID,0,VALID,89.7919,VALID,0.100563,VALID,25.3,VALID,354,VALID,0.51875,
2009-02-13, 03:09:04,VALID,1002.33,VALID,0,VALID,89.9369,VALID,0,VALID,25.2611,VALID,354,VALID,0.465625,
2009-02-13, 03:10:04,VALID,1002.36,VALID,0,VALID,90.0818,VALID,0,VALID,25.2416,VALID,5,VALID,0.559375,
2009-02-13, 03:11:04,VALID,1002.38,VALID,0,VALID,90.1963,VALID,0,VALID,25.2202,VALID,8,VALID,0.520703,
2009-02-13, 03:12:04,VALID,1002.4,VALID,0,VALID,90.1886,VALID,0,VALID,25.2221,VALID,342,VALID,0.700391,
2009-02-13, 03:13:04,VALID,1002.39,VALID,0,VALID,90.2497,VALID,0,VALID,25.1832,VALID,355,VALID,0.686719,
2009-02-13, 03:14:04,VALID,1002.43,VALID,0,VALID,90.2802,VALID,0,VALID,25.1618,VALID,348,VALID,0.178125,
2009-02-13, 03:15:04,VALID,1002.44,VALID,0,VALID,90.2725,VALID,0.100563,VALID,25.1637,VALID,350,VALID,0.255078,
2009-02-13, 03:16:04,VALID,1002.48,VALID,0,VALID,90.3793,VALID,0,VALID,25.1637,VALID,73,VALID,0.628516,
2009-02-13, 03:17:04,VALID,1002.55,VALID,0,VALID,90.5472,VALID,0,VALID,25.1832,VALID,142,VALID,1.05391,
2009-02-13, 03:18:04,VALID,1002.56,VALID,0,VALID,90.6311,VALID,0,VALID,25.2027,VALID,167,VALID,1.31445,
2009-02-13, 03:19:04,VALID,1002.6,VALID,0,VALID,90.5624,VALID,0,VALID,25.224,VALID,179,VALID,1.38047,
2009-02-13, 03:20:04,VALID,1002.6,VALID,0,VALID,90.7455,VALID,0,VALID,25.1832,VALID,170,VALID,0.854688,
2009-02-13, 03:21:04,VALID,1002.61,VALID,0,VALID,90.6311,VALID,0,VALID,25.1637,VALID,159,VALID,1.10273,
2009-02-13, 03:22:04,VALID,1002.61,VALID,0,VALID,90.7226,VALID,0,VALID,25.1637,VALID,159,VALID,0.756641,
2009-02-13, 03:23:04,VALID,1002.6,VALID,0,VALID,90.8523,VALID,0,VALID,25.1637,VALID,159,VALID,0.602734,
2009-02-13, 03:24:04,VALID,1002.6,VALID,0,VALID,90.8829,VALID,0,VALID,25.1637,VALID,156,VALID,0.571875,
2009-02-13, 03:25:04,VALID,1002.61,VALID,0,VALID,91.0202,VALID,0,VALID,25.2027,VALID,143,VALID,0.740234,
2009-02-13, 03:26:04,VALID,1002.66,VALID,0,VALID,90.9744,VALID,0,VALID,25.2221,VALID,128,VALID,0.928906,
2009-02-13, 03:27:04,VALID,1002.69,VALID,0,VALID,90.7379,VALID,0,VALID,25.2416,VALID,122,VALID,0.897656,
2009-02-13, 03:28:04,VALID,1002.69,VALID,0,VALID,90.6082,VALID,0,VALID,25.2592,VALID,95,VALID,0.666797,
2009-02-13, 03:29:04,VALID,1002.73,VALID,0,VALID,90.4099,VALID,0,VALID,25.3214,VALID,94,VALID,0.630859,
2009-02-13, 03:30:04,VALID,1002.8,VALID,0,VALID,90.2649,VALID,0,VALID,25.2806,VALID,94,VALID,0.703125,
2009-02-13, 03:31:04,VALID,1002.83,VALID,0,VALID,90.12,VALID,0.100563,VALID,25.2806,VALID,87,VALID,0.525,
2009-02-13, 03:32:04,VALID,1002.94,VALID,0,VALID,90.1352,VALID,0,VALID,25.2806,VALID,89,VALID,0,
2009-02-13, 03:33:04,VALID,1002.99,VALID,0,VALID,90.0589,VALID,0,VALID,25.2592,VALID,10,VALID,0.897266,
2009-02-13, 03:34:04,VALID,1003.02,VALID,0,VALID,90.1505,VALID,0,VALID,25.2806,VALID,8,VALID,0.454297,
2009-02-13, 03:35:04,VALID,1003.04,VALID,0,VALID,90.181,VALID,0,VALID,25.2806,VALID,21,VALID,0.471484,
2009-02-13, 03:36:04,VALID,1003,VALID,0,VALID,89.8377,VALID,0,VALID,25.2806,VALID,17,VALID,1.00586,
2009-02-13, 03:37:04,VALID,1002.97,VALID,0,VALID,89.8148,VALID,0,VALID,25.3,VALID,355,VALID,0.258594,
2009-02-13, 03:38:04,VALID,1002.86,VALID,0,VALID,89.7919,VALID,0.100563,VALID,25.339,VALID,354,VALID,0.233984,
2009-02-13, 03:39:04,VALID,1002.8,VALID,0,VALID,89.4181,VALID,0,VALID,25.339,VALID,8,VALID,0.469922,
2009-02-13, 03:40:04,VALID,1002.71,VALID,0,VALID,89.5402,VALID,0,VALID,25.3584,VALID,11,VALID,0.608203,
2009-02-13, 03:41:04,VALID,1002.66,VALID,0,VALID,89.174,VALID,0,VALID,25.3176,VALID,15,VALID,0.426562,
2009-02-13, 03:42:04,VALID,1002.64,VALID,0,VALID,89.0977,VALID,0,VALID,25.3584,VALID,15,VALID,0.375,
2009-02-13, 03:43:04,VALID,1002.62,VALID,0,VALID,88.9299,VALID,0,VALID,25.339,VALID,356,VALID,0.562109,
2009-02-13, 03:44:04,VALID,1002.63,VALID,0,VALID,88.8841,VALID,0.100563,VALID,25.3974,VALID,341,VALID,0.137891,